Location: Unspecified
(0.0000°N, 0.0000°E)
Time: 04:39:44
(UTC+00:00)

N. Korean satellite - Pass Details

Date: 26 January 2023
Orbit: 408 x 444 km, 97.3° (Epoch: 27 January)

Event Time Altitude Azimuth Distance (km) Brightness Sun altitude
Rises 05:04:31 0° 6° (N) 2,364 9.9 -16.1°
Reaches altitude 10° 05:06:30 10° 3° (N) 1,509 8.9 -15.6°
Maximum altitude 05:09:42 63° 281° (W) 481 6.2 -14.8°
Drops below altitude 10° 05:12:57 10° 199° (SSW) 1,538 9.1 -14.1°
Sets 05:15:00 0° 196° (SSW) 2,415 10.2 -13.6°
